FW9446 Weather Reports


Display with metric or nautical units.
time (UTC)temp
F
wind
direction
speed
MPH
gust
MPH
rain 1hr
in
rain 24hr
in
rain mn
in
humidity
%
barometer
mb
20260904162058 90 0 0.0 0.0 0.00 0.00 0.00 73 1018.4
20260904161605 90 0 0.0 0.0 0.00 0.00 0.00 73 1018.5
20260904161059 89 0 0.0 0.0 0.00 0.00 0.00 73 1018.6
20260904160601 89 0 0.0 0.0 0.00 0.00 0.00 70 1018.6
20260904155559 89 0 0.0 0.0 0.00 0.00 0.00 71 1018.6
20260904155058 89 0 0.0 0.0 0.00 0.00 0.00 72 1018.7
20260904154611 88 0 0.0 0.0 0.00 0.00 0.00 75 1018.7
20260904154058 88 0 0.0 0.0 0.00 0.00 0.00 74 1018.7
20260904153558 88 0 0.0 0.0 0.00 0.00 0.00 73 1018.6
20260904153110 87 0 0.0 0.0 0.00 0.00 0.00 74 1018.6
20260904152557 87 0 0.0 0.0 0.00 0.00 0.00 75 1018.6
20260904152059 86 0 0.0 0.0 0.00 0.00 0.00 77 1018.6
20260904151603 85 0 0.0 0.0 0.00 0.00 0.00 80 1018.6
20260904151058 84 0 0.0 0.0 0.00 0.00 0.00 82 1018.6
20260904150558 83 0 0.0 0.0 0.00 0.00 0.00 84 1018.7
20260904150101 83 0 0.0 0.0 0.00 0.00 0.00 84 1018.6
20260904145559 83 0 0.0 0.0 0.00 0.00 0.00 85 1018.6
20260904145059 83 0 0.0 0.0 0.00 0.00 0.00 84 1018.7
20260904144601 82 0 0.0 0.0 0.00 0.00 0.00 82 1018.6
20260904144101 82 0 0.0 0.0 0.00 0.00 0.00 84 1018.5
20260904143558 81 0 0.0 0.0 0.00 0.00 0.00 84 1018.5
20260904143105 81 0 0.0 0.0 0.00 0.00 0.00 87 1018.5
20260904142558 80 0 0.0 0.0 0.00 0.00 0.00 86 1018.4
20260904142059 80 0 0.0 0.0 0.00 0.00 0.00 89 1018.4
20260904141622 79 0 0.0 0.0 0.00 0.00 0.00 89 1018.3
20260904141058 78 0 0.0 0.0 0.00 0.00 0.00 93 1018.3
20260904140558 78 0 0.0 0.0 0.00 0.00 0.00 94 1018.2
20260904140106 77 0 0.0 0.0 0.00 0.00 0.00 95 1018.3
20260904135559 77 0 0.0 0.0 0.00 0.00 0.00 95 1018.2
20260904135059 76 0 0.0 0.0 0.00 0.00 0.00 96 1018.3
20260904134605 76 0 0.0 0.0 0.00 0.00 0.00 97 1018.2
20260904134058 76 0 0.0 0.0 0.00 0.00 0.00 99 1018.2
20260904133558 75 0 0.0 0.0 0.00 0.00 0.00 99 1018.3
20260904133107 75 0 0.0 0.0 0.00 0.00 0.00 99 1018.2
20260904132600 75 0 0.0 0.0 0.00 0.00 0.00 99 1018.3
20260904132057 74 0 0.0 0.0 0.00 0.00 0.00 99 1018.3
20260904131636 74 0 0.0 0.0 0.00 0.00 0.00 100 1018.3
20260904131057 74 0 0.0 0.0 0.00 0.00 0.00 99 1018.4
20260904130558 74 0 0.0 0.0 0.00 0.00 0.00 99 1018.3
20260904125559 73 0 0.0 0.0 0.00 0.00 0.00 99 1018.3
20260904125059 73 0 0.0 0.0 0.00 0.00 0.00 99 1018.3
20260904124606 72 0 0.0 0.0 0.00 0.00 0.00 99 1018.2
20260904124058 72 0 0.0 0.0 0.00 0.00 0.00 99 1018.2
20260904123558 72 0 0.0 0.0 0.00 0.00 0.00 99 1018.2
20260904123110 72 0 0.0 0.0 0.00 0.00 0.00 99 1018.2
20260904122558 72 0 0.0 0.0 0.00 0.00 0.00 99 1018.1
20260904122104 72 0 0.0 0.0 0.00 0.00 0.00 99 1018.1
20260904121603 72 0 0.0 0.0 0.00 0.00 0.00 99 1018.1
20260904121058 72 0 0.0 0.0 0.00 0.00 0.00 99 1018.1
20260904120602 71 0 0.0 0.0 0.00 0.00 0.00 99 1018.1
20260904120109 71 0 0.0 0.0 0.00 0.00 0.00 99 1018.0
20260904115558 71 0 0.0 0.0 0.00 0.00 0.00 99 1018.0
20260904115059 71 0 0.0 0.0 0.00 0.00 0.00 99 1017.9
20260904114605 71 0 0.0 0.0 0.00 0.00 0.00 99 1018.0
20260904114058 71 0 0.0 0.0 0.00 0.00 0.00 99 1018.0
20260904113558 71 0 0.0 0.0 0.00 0.00 0.00 99 1018.0
20260904113105 71 0 0.0 0.0 0.00 0.00 0.00 99 1017.9
20260904112558 71 0 0.0 0.0 0.00 0.00 0.00 99 1017.9
20260904112058 71 0 0.0 0.0 0.00 0.00 0.00 99 1017.9
20260904111601 71 0 0.0 0.0 0.00 0.00 0.00 99 1017.7
20260904111058 71 0 0.0 0.0 0.00 0.00 0.00 99 1017.7
20260904110558 72 0 0.0 0.0 0.00 0.00 0.00 99 1017.7
20260904110108 71 0 0.0 0.0 0.00 0.00 0.00 99 1017.6
20260904105558 72 0 0.0 0.0 0.00 0.00 0.00 99 1017.5
20260904105058 72 0 0.0 0.0 0.00 0.00 0.00 99 1017.5
20260904104612 72 0 0.0 0.0 0.00 0.00 0.00 99 1017.3
20260904104058 72 0 0.0 0.0 0.00 0.00 0.00 99 1017.2
20260904103557 72 0 0.0 0.0 0.00 0.00 0.00 99 1017.2
20260904103108 72 0 0.0 0.0 0.00 0.00 0.00 99 1017.2
20260904102558 72 0 0.0 0.0 0.00 0.00 0.00 98 1017.3
20260904102057 72 0 0.0 0.0 0.00 0.00 0.00 98 1017.3
20260904101605 72 0 0.0 0.0 0.00 0.00 0.00 98 1017.2
20260904101059 72 0 0.0 0.0 0.00 0.00 0.00 98 1017.1
20260904100558 72 0 0.0 0.0 0.00 0.00 0.00 98 1017.0
20260904100111 72 0 0.0 0.0 0.00 0.00 0.00 98 1017.0
20260904095600 72 0 0.0 0.0 0.00 0.00 0.00 98 1016.9
20260904095058 72 0 0.0 0.0 0.00 0.00 0.00 98 1016.9
20260904094605 72 0 0.0 0.0 0.00 0.00 0.00 98 1016.9
20260904094058 72 0 0.0 0.0 0.00 0.00 0.00 98 1016.9
20260904093558 72 0 0.0 0.0 0.00 0.00 0.00 98 1016.8
20260904093103 72 0 0.0 0.0 0.00 0.00 0.00 98 1016.9
20260904092557 72 0 0.0 0.0 0.00 0.00 0.00 98 1016.8
20260904092100 72 0 0.0 0.0 0.00 0.00 0.00 98 1016.8
20260904091601 72 0 0.0 0.0 0.00 0.00 0.00 98 1017.0
20260904091059 72 0 0.0 0.0 0.00 0.00 0.00 98 1016.8
20260904090558 72 0 0.0 0.0 0.00 0.00 0.00 98 1016.9
20260904090106 72 0 0.0 0.0 0.00 0.00 0.00 98 1016.9
20260904085558 72 0 0.0 0.0 0.00 0.00 0.00 98 1016.9
20260904085058 72 0 0.0 0.0 0.00 0.00 0.00 98 1016.9
20260904084604 72 0 0.0 0.0 0.00 0.00 0.00 98 1016.8
20260904084057 73 0 0.0 0.0 0.00 0.00 0.00 98 1016.9
20260904083557 73 0 0.0 0.0 0.00 0.00 0.00 98 1016.8
20260904083105 73 0 0.0 0.0 0.00 0.00 0.00 98 1016.8
20260904082558 73 0 0.0 0.0 0.00 0.00 0.00 98 1016.8
20260904082058 73 0 0.0 0.0 0.00 0.00 0.00 98 1016.8
20260904081609 73 0 0.0 0.0 0.00 0.00 0.00 98 1016.8
20260904081058 73 0 0.0 0.0 0.00 0.00 0.00 98 1016.7
20260904080558 73 0 0.0 0.0 0.00 0.00 0.00 98 1016.7
20260904080114 73 0 0.0 0.0 0.00 0.00 0.00 98 1016.6
20260904075558 73 0 0.0 0.0 0.00 0.00 0.00 98 1016.6
20260904075058 73 0 0.0 0.0 0.00 0.00 0.00 98 1016.5
20260904074636 73 0 0.0 0.0 0.00 0.00 0.00 98 1016.7
20260904074058 73 0 0.0 0.0 0.00 0.00 0.00 98 1016.6
20260904073602 73 0 0.0 0.0 0.00 0.00 0.00 98 1016.5
20260904073102 73 0 0.0 0.0 0.00 0.00 0.00 98 1016.3
20260904072559 73 0 0.0 0.0 0.00 0.00 0.00 98 1016.4
20260904072058 73 0 0.0 0.0 0.00 0.00 0.00 98 1016.5
20260904071607 73 0 0.0 0.0 0.00 0.00 0.00 98 1016.4
20260904071058 73 0 0.0 0.0 0.00 0.00 0.00 98 1016.4
20260904070602 73 0 0.0 0.0 0.00 0.00 0.00 98 1016.4
20260904070106 74 0 0.0 0.0 0.00 0.00 0.00 98 1016.4
20260904065557 74 0 0.0 0.0 0.00 0.00 0.00 98 1016.4
20260904065058 74 0 0.0 0.0 0.00 0.00 0.00 97 1016.4
20260904064603 74 0 0.0 0.0 0.00 0.00 0.00 97 1016.4
20260904064100 74 0 0.0 0.0 0.00 0.00 0.00 97 1016.3
20260904063600 74 0 0.0 0.0 0.00 0.00 0.00 97 1016.5
20260904063113 74 0 0.0 0.0 0.00 0.00 0.00 97 1016.6
20260904062600 74 0 0.0 0.0 0.00 0.00 0.00 97 1016.6
20260904062058 74 0 0.0 0.0 0.00 0.00 0.00 97 1016.6
20260904061607 74 0 0.0 0.0 0.00 0.00 0.00 97 1016.7
20260904061057 74 0 0.0 0.0 0.00 0.00 0.00 97 1016.8
20260904060558 74 0 0.0 0.0 0.00 0.00 0.00 97 1016.7
20260904060115 74 0 0.0 0.0 0.00 0.00 0.00 97 1016.8
20260904055558 74 0 0.0 0.0 0.00 0.00 0.00 97 1016.8
20260904055058 74 0 0.0 0.0 0.00 0.00 0.00 97 1016.7
20260904054608 74 0 0.0 0.0 0.00 0.00 0.00 97 1016.7
20260904054058 74 0 0.0 0.0 0.00 0.00 0.00 97 1016.6
20260904053557 74 0 0.0 0.0 0.00 0.00 0.00 97 1016.8
20260904053102 74 0 0.0 0.0 0.00 0.00 0.00 97 1016.7
20260904052602 74 0 0.0 0.0 0.00 0.00 0.00 97 1016.9
20260904052059 74 0 0.0 0.0 0.00 0.00 0.00 97 1017.0
20260904051601 74 0 0.0 0.0 0.00 0.00 0.00 97 1017.0
20260904051057 75 0 0.0 0.0 0.00 0.00 0.00 97 1017.0
20260904050557 75 0 0.0 0.0 0.00 0.00 0.00 97 1016.9
20260904050104 75 0 0.0 0.0 0.00 0.00 0.00 97 1017.0
20260904045558 75 0 0.0 0.0 0.00 0.00 0.00 97 1017.0
20260904045059 75 0 0.0 0.0 0.00 0.00 0.00 97 1017.1
20260904044607 75 0 0.0 0.0 0.00 0.00 0.00 97 1017.1
20260904044101 75 0 0.0 0.0 0.00 0.00 0.00 96 1017.1
20260904043557 75 0 0.0 0.0 0.00 0.00 0.00 97 1017.2
20260904043108 75 0 0.0 0.0 0.00 0.00 0.00 96 1017.2
20260904042557 75 0 0.0 0.0 0.00 0.00 0.00 96 1017.2
20260904042057 75 0 0.0 0.0 0.00 0.00 0.00 96 1017.1
20260904041605 75 0 0.0 0.0 0.00 0.00 0.00 96 1017.3
20260904041058 75 0 0.0 0.0 0.00 0.00 0.00 96 1017.3
20260904040601 75 0 0.0 0.0 0.00 0.00 0.00 96 1017.2
20260904040105 75 0 0.0 0.0 0.00 0.00 0.00 96 1017.3
20260904035558 75 0 0.0 0.0 0.00 0.00 0.00 96 1017.3
20260904035058 76 0 0.0 0.0 0.00 0.00 0.00 96 1017.3
20260904034615 76 0 0.0 0.0 0.00 0.00 0.00 96 1017.4
20260904034057 76 0 0.0 0.0 0.00 0.00 0.00 96 1017.4
20260904033616 76 0 0.0 0.0 0.00 0.00 0.00 96 1017.4
20260904033116 76 0 0.0 0.0 0.00 0.00 0.00 96 1017.5
20260904032558 76 0 0.0 0.0 0.00 0.00 0.00 96 1017.5
20260904032057 76 0 0.0 0.0 0.00 0.00 0.00 96 1017.6
20260904031606 76 0 0.0 0.0 0.00 0.00 0.00 96 1017.6
20260904031058 76 0 0.0 0.0 0.00 0.00 0.00 96 1017.6
20260904030601 76 0 0.0 0.0 0.00 0.00 0.00 96 1017.6
20260904030112 76 0 0.0 0.0 0.00 0.00 0.00 95 1017.6
20260904025559 76 0 0.0 0.0 0.00 0.00 0.00 95 1017.6
20260904025058 77 0 0.0 0.0 0.00 0.00 0.00 95 1017.5
20260904024606 77 0 0.0 0.0 0.00 0.00 0.00 95 1017.6
20260904024101 77 0 0.0 0.0 0.00 0.00 0.00 95 1017.6
20260904023557 77 0 0.0 0.0 0.00 0.00 0.00 95 1017.6
20260904023121 77 0 0.0 0.0 0.00 0.00 0.00 95 1017.5
20260904022557 77 0 0.0 0.0 0.00 0.00 0.00 95 1017.6
20260904022058 77 0 0.0 0.0 0.00 0.00 0.00 95 1017.4
20260904021601 77 0 0.0 0.0 0.00 0.00 0.00 95 1017.4
20260904021057 77 0 0.0 0.0 0.00 0.00 0.00 95 1017.2
20260904020558 77 0 0.0 0.0 0.00 0.00 0.00 94 1017.3
20260904020106 77 0 0.0 0.0 0.00 0.00 0.00 94 1017.2
20260904015559 78 0 0.0 0.0 0.00 0.00 0.00 94 1017.1
20260904015057 78 0 0.0 0.0 0.00 0.00 0.00 94 1017.1
20260904014607 78 0 0.0 0.0 0.00 0.00 0.00 94 1017.1
20260904014058 78 0 0.0 0.0 0.00 0.00 0.00 94 1017.0
20260904013600 78 0 0.0 0.0 0.00 0.00 0.00 94 1017.0
20260904013102 78 0 0.0 0.0 0.00 0.00 0.00 94 1016.8
20260904012557 78 0 0.0 0.0 0.00 0.00 0.00 94 1016.8
20260904012059 78 0 0.0 0.0 0.00 0.00 0.00 94 1016.7
20260904011600 78 0 0.0 0.0 0.00 0.00 0.00 94 1016.7
20260904011058 79 0 0.0 0.0 0.00 0.00 0.00 93 1016.7
20260904010557 79 0 0.0 0.0 0.00 0.00 0.00 93 1016.6
20260904010108 79 0 0.0 0.0 0.00 0.00 0.00 93 1016.4
20260904005558 79 0 0.0 0.0 0.00 0.00 0.00 93 1016.5
20260904005100 79 0 0.0 0.0 0.00 0.00 0.00 93 1016.4
20260904004604 80 0 0.0 0.0 0.00 0.00 0.00 92 1016.4
20260904004058 80 0 0.0 0.0 0.00 0.00 0.00 92 1016.3
20260904003557 80 0 0.0 0.0 0.00 0.00 0.00 92 1016.3
20260904003106 80 0 0.0 0.0 0.00 0.00 0.00 92 1016.2
20260904002557 81 0 0.0 0.0 0.00 0.00 0.00 92 1016.1
20260904002100 81 0 0.0 0.0 0.00 0.00 0.00 92 1016.1
20260904001605 81 0 0.0 0.0 0.00 0.00 0.00 92 1016.0
20260904001057 81 0 0.0 0.0 0.00 0.00 0.00 92 1016.0
20260904000558 82 0 0.0 0.0 0.00 0.00 0.00 91 1016.0
20260904000136 82 0 0.0 0.0 0.00 0.00 0.00 91 1015.9
20260903235559 82 0 0.0 0.0 0.00 0.00 0.00 91 1015.8
20260903235101 82 0 0.0 0.0 0.00 0.00 0.00 91 1015.8
20260903234604 83 0 0.0 0.0 0.00 0.00 0.00 90 1015.7
20260903234058 83 0 0.0 0.0 0.00 0.00 0.00 90 1015.8
20260903233558 83 0 0.0 0.0 0.00 0.00 0.00 89 1015.8
20260903233103 83 0 0.0 0.0 0.00 0.00 0.00 89 1015.7
20260903232557 84 0 0.0 0.0 0.00 0.00 0.00 88 1015.7
20260903232057 84 0 0.0 0.0 0.00 0.00 0.00 88 1015.6
20260903231610 84 0 0.0 0.0 0.00 0.00 0.00 88 1015.6
20260903231057 84 0 0.0 0.0 0.00 0.00 0.00 88 1015.6
20260903230558 84 0 0.0 0.0 0.00 0.00 0.00 88 1015.7
20260903230114 84 0 0.0 0.0 0.00 0.00 0.00 87 1015.6
20260903225558 85 0 0.0 0.0 0.00 0.00 0.00 87 1015.6
20260903225057 85 0 0.0 0.0 0.00 0.00 0.00 86 1015.6
20260903224610 85 0 0.0 0.0 0.00 0.00 0.00 85 1015.7
20260903224057 86 0 0.0 0.0 0.00 0.00 0.00 85 1015.6
20260903223558 86 0 0.0 0.0 0.00 0.00 0.00 84 1015.7
20260903223109 86 0 0.0 0.0 0.00 0.00 0.00 85 1015.7
20260903222557 86 0 0.0 0.0 0.00 0.00 0.00 84 1015.7
20260903222101 87 0 0.0 0.0 0.00 0.00 0.00 84 1015.6
20260903221604 87 0 0.0 0.0 0.00 0.00 0.00 83 1015.8
20260903221057 87 0 0.0 0.0 0.00 0.00 0.00 84 1015.6
20260903220557 87 0 0.0 0.0 0.00 0.00 0.00 83 1015.7
20260903220120 87 0 0.0 0.0 0.00 0.00 0.00 82 1015.8
20260903215603 88 0 0.0 0.0 0.00 0.00 0.00 80 1015.7
20260903215058 89 0 0.0 0.0 0.00 0.00 0.00 78 1015.7
20260903214611 90 0 0.0 0.0 0.00 0.00 0.00 77 1015.7
20260903214057 90 0 0.0 0.0 0.00 0.00 0.00 77 1015.7
20260903213603 90 0 0.0 0.0 0.00 0.00 0.00 77 1015.7
20260903213107 90 0 0.0 0.0 0.00 0.00 0.00 77 1015.8
20260903212557 90 0 0.0 0.0 0.00 0.00 0.00 76 1015.8
20260903212058 91 0 0.0 0.0 0.00 0.00 0.00 74 1015.8
20260903211621 92 0 0.0 0.0 0.00 0.00 0.00 72 1015.8
20260903211101 92 0 0.0 0.0 0.00 0.00 0.00 72 1015.9
20260903210601 93 0 0.0 0.0 0.00 0.00 0.00 72 1016.2
20260903210111 93 0 0.0 0.0 0.00 0.00 0.00 72 1016.1
20260903205557 94 0 0.0 0.0 0.00 0.00 0.00 70 1016.0
20260903205057 94 0 0.0 0.0 0.00 0.00 0.00 71 1016.1
20260903204607 94 0 0.0 0.0 0.00 0.00 0.00 66 1016.2
20260903204058 94 0 0.0 0.0 0.00 0.00 0.00 68 1016.2
20260903203557 94 0 0.0 0.0 0.00 0.00 0.00 68 1016.2
20260903203105 94 0 0.0 0.0 0.00 0.00 0.00 70 1016.1
20260903202558 93 0 0.0 0.0 0.00 0.00 0.00 73 1016.3
20260903202057 92 0 0.0 0.0 0.00 0.00 0.00 68 1016.2
20260903201606 92 0 0.0 0.0 0.00 0.00 0.00 75 1016.2
20260903201056 91 0 0.0 0.0 0.00 0.00 0.00 75 1016.3
20260903200556 91 0 0.0 0.0 0.00 0.00 0.00 73 1016.4
20260903200104 92 0 0.0 0.0 0.00 0.00 0.00 71 1016.4
20260903195600 93 0 0.0 0.0 0.00 0.00 0.00 69 1016.6
20260903195100 93 0 0.0 0.0 0.00 0.00 0.00 68 1016.7
20260903194601 94 0 0.0 0.0 0.00 0.00 0.00 65 1016.7
20260903194057 96 0 0.0 0.0 0.00 0.00 0.00 61 1016.7
20260903193600 97 0 0.0 0.0 0.00 0.00 0.00 61 1016.7
20260903193107 97 0 0.0 0.0 0.00 0.00 0.00 62 1016.7
20260903192557 97 0 0.0 0.0 0.00 0.00 0.00 57 1016.8
20260903192057 96 0 0.0 0.0 0.00 0.00 0.00 54 1017.0
20260903191602 96 0 0.0 0.0 0.00 0.00 0.00 58 1017.0
20260903191057 97 0 0.0 0.0 0.00 0.00 0.00 56 1017.0
20260903190558 96 0 0.0 0.0 0.00 0.00 0.00 56 1017.1
20260903185557 96 0 0.0 0.0 0.00 0.00 0.00 58 1017.2
20260903185057 96 0 0.0 0.0 0.00 0.00 0.00 60 1017.3
20260903184606 96 0 0.0 0.0 0.00 0.00 0.00 65 1017.4
20260903184057 96 0 0.0 0.0 0.00 0.00 0.00 59 1017.4
20260903183600 96 0 0.0 0.0 0.00 0.00 0.00 56 1017.5
20260903183102 96 0 0.0 0.0 0.00 0.00 0.00 59 1017.4
20260903182558 95 0 0.0 0.0 0.00 0.00 0.00 60 1017.6
20260903182057 95 0 0.0 0.0 0.00 0.00 0.00 59 1017.7
20260903181607 95 0 0.0 0.0 0.00 0.00 0.00 57 1017.8
20260903181057 95 0 0.0 0.0 0.00 0.00 0.00 58 1017.9
20260903180557 95 0 0.0 0.0 0.00 0.00 0.00 61 1018.0
20260903180115 95 0 0.0 0.0 0.00 0.00 0.00 60 1018.0
20260903175556 94 0 0.0 0.0 0.00 0.00 0.00 61 1018.0
20260903175057 94 0 0.0 0.0 0.00 0.00 0.00 68 1018.1
20260903174613 94 0 0.0 0.0 0.00 0.00 0.00 59 1018.1
20260903174059 94 0 0.0 0.0 0.00 0.00 0.00 66 1018.1
20260903173557 94 0 0.0 0.0 0.00 0.00 0.00 63 1018.1
20260903173117 93 0 0.0 0.0 0.00 0.00 0.00 63 1018.3
20260903172557 93 0 0.0 0.0 0.00 0.00 0.00 61 1018.3
20260903172057 94 0 0.0 0.0 0.00 0.00 0.00 69 1018.3
20260903171603 94 0 0.0 0.0 0.00 0.00 0.00 67 1018.4
20260903171058 93 0 0.0 0.0 0.00 0.00 0.00 64 1018.5
20260903170558 93 0 0.0 0.0 0.00 0.00 0.00 65 1018.5
20260903170113 93 0 0.0 0.0 0.00 0.00 0.00 71 1018.6
20260903165556 93 0 0.0 0.0 0.00 0.00 0.00 66 1018.7
20260903165056 92 0 0.0 0.0 0.00 0.00 0.00 68 1018.8
20260903164604 92 0 0.0 0.0 0.00 0.00 0.00 69 1018.8
20260903164057 92 0 0.0 0.0 0.00 0.00 0.00 70 1018.9
20260903163557 91 0 0.0 0.0 0.00 0.00 0.00 70 1018.9
20260903163108 91 0 0.0 0.0 0.00 0.00 0.00 74 1018.9
20260903162557 91 0 0.0 0.0 0.00 0.00 0.00 74 1019.0